Flag for Germany Weather past 2 weeks in Meiningen, Thuringia, Germany

Now
63 °F

Overcast.


Feels Like: 63 °F
Forecast: 44 / 63 °F
Wind: 3 mph from South

Location: Meiningen

Current Time: Sep 3, 2015 at 3:25:52 PM

Latest Report: Sep 3, 2015 at 3:00 PM


Visibility: 4 mi

Pressure: 29.92 "Hg

Humidity: 66%

Dew point: 51 °F

Location of MeiningenLocation

Historic Weather in Meiningen — Graph

°F

Meiningen temperature yesterday

Maximum temperature yesterday: 63 °F (at 4:00 PM)
Minimum temperature yesterday: 51 °F (at 3:00 AM)
Average temperature yesterday: 57 °F

Past Weeks' High & Low Weather Summary

 TemperatureHumidityPressure
High88 °F (Aug 31, 4:00 PM)100% (Aug 21, 2:00 AM)30.33 "Hg (Aug 21, 2:00 AM)
Low48 °F (Aug 21, 7:00 AM)30% (Aug 22, 3:00 PM)29.68 "Hg (Aug 24, 3:00 PM)
Average64 °F71%30.02 "Hg
* Reported Aug 19 2:00 PM — Sep 3 2:00 PM, Meiningen, Weather by CustomWeather, © 2015

Note: Actual official high and low records may vary slightly from our data, if they occured in-between our weather recording intervals... More about our weather records

Advertising

Meiningen weather history for previous 24 hours

 ConditionsComfort  
Time TempWeatherWind HumidityBarometerVisibility
2:00 PM
Thu, Sep 3
61 °FOvercast.3 mph71%29.93 "Hg6 mi
1:00 PM60 °FOvercast.3 mph73%29.93 "Hg6 mi
12:00 PM61 °FOvercast.1 mph73%29.95 "Hg11 mi
10:00 AM56 °FOvercast.2 mph86%29.96 "Hg7 mi
9:00 AM54 °FOvercast.2 mph91%29.97 "Hg7 mi
8:00 AM52 °FOvercast.2 mph91%29.98 "Hg14 mi
7:00 AM51 °FOvercast.1 mph93%29.97 "Hg14 mi
5:00 AM52 °FOvercast.2 mph91%29.97 "Hg15 mi
4:00 AM52 °FOvercast.1 mph91%29.98 "Hg16 mi
3:00 AM53 °FOvercast.1 mph90%29.98 "Hg16 mi
2:00 AM52 °FPassing clouds.1 mph91%29.99 "Hg18 mi
1:00 AM54 °FPassing clouds.1 mph86%30.00 "Hg22 mi
10:00 PM
Wed, Sep 2
59 °FOvercast.No wind71%30.01 "Hg31 mi
9:00 PM60 °FOvercast.1 mph66%30.01 "Hg37 mi
8:00 PM60 °FOvercast.1 mph67%29.99 "Hg40 mi
7:00 PM61 °FOvercast.1 mph66%29.99 "Hg37 mi
6:00 PM62 °FOvercast.2 mph64%29.99 "Hg22 mi
4:00 PM63 °FOvercast.2 mph54%30.00 "Hg28 mi
3:00 PM62 °FOvercast.1 mph58%30.01 "Hg28 mi
Weather by CustomWeather, © 2015

See weather overviewHow to use our weather pages